C/2007 T5 (Gibbs) Epoch 2008 May 14.0 TT = JDT 2454600.5 T 2008 May 24.1765 TT MPC q 4.049340 (2000.0) P Q z +0.021387 Peri. 34.4057 -0.6518303 -0.3510403 +/-0.000001 Node 109.8429 +0.4283122 -0.9019145 e 0.913398 Incl. 45.6151 +0.6258322 +0.2516366 From 123 observations 2007 Oct. 13-Dec. 16, mean residual 0".6.An explanation of the orbital elements is available.
These orbital elements are also available in forms suitable for loading into a number of popular planetarium-type software programs.
Personalized ephemerides for this (and other) objects may be generated using the Minor Planet & Comet Ephemeris Service.
Recent magnitude estimates for this comet (as reported to the ICQ) may be available.
Date TT R. A. (2000) Decl. Delta r Elong. Phase m1 m2WARNING! 2008 04 14 08 05.71 +40 51.5 3.928 4.063 90.5 14.3 17.1 2008 04 19 08 08.86 +40 55.5 3.996 4.060 86.5 14.3 17.1 2008 04 24 08 12.44 +40 57.8 4.063 4.057 82.6 14.2 17.1 2008 04 29 08 16.41 +40 58.4 4.129 4.055 78.7 14.1 17.2 2008 05 04 08 20.76 +40 57.6 4.194 4.053 75.0 13.9 17.2 2008 05 09 08 25.47 +40 55.2 4.258 4.051 71.4 13.7 17.2 2008 05 14 08 30.51 +40 51.5 4.320 4.050 67.9 13.4 17.3 2008 05 19 08 35.84 +40 46.6 4.380 4.050 64.5 13.0 17.3 2008 05 24 08 41.46 +40 40.3 4.439 4.049 61.2 12.7 17.3 2008 05 29 08 47.32 +40 32.9 4.495 4.050 58.0 12.3 17.3 2008 06 03 08 53.43 +40 24.4 4.548 4.050 54.9 11.8 17.4 2008 06 08 08 59.75 +40 14.7 4.599 4.051 51.8 11.4 17.4 2008 06 13 09 06.26 +40 04.0 4.647 4.053 48.9 10.9 17.4 2008 06 18 09 12.94 +39 52.4 4.692 4.054 46.1 10.4 17.4 2008 06 23 09 19.78 +39 39.8 4.734 4.057 43.4 9.9 17.5 2008 06 28 09 26.75 +39 26.3 4.774 4.059 40.8 9.4 17.5 2008 07 03 09 33.86 +39 12.1 4.810 4.062 38.4 8.9 17.5 2008 07 08 09 41.07 +38 57.0 4.843 4.066 36.1 8.5 17.5 2008 07 13 09 48.38 +38 41.3 4.873 4.070 34.0 8.0 17.5 2008 07 18 09 55.77 +38 25.0 4.899 4.074 32.1 7.6 17.6 2008 07 23 10 03.23 +38 08.2 4.923 4.079 30.4 7.2 17.6 2008 07 28 10 10.76 +37 50.9 4.943 4.084 28.9 6.9 17.6 2008 08 02 10 18.33 +37 33.3 4.960 4.089 27.7 6.6 17.6 2008 08 07 10 25.95 +37 15.4 4.974 4.095 26.9 6.4 17.6 2008 08 12 10 33.60 +36 57.3 4.984 4.101 26.4 6.3 17.6 2008 08 17 10 41.27 +36 39.2 4.991 4.108 26.3 6.3 17.6 2008 08 22 10 48.95 +36 21.1 4.995 4.115 26.5 6.3 17.6 2008 08 27 10 56.65 +36 03.2 4.996 4.123 27.1 6.4 17.6 2008 09 01 11 04.35 +35 45.5 4.994 4.130 28.0 6.6 17.7 2008 09 06 11 12.04 +35 28.3 4.989 4.139 29.2 6.8 17.7 2008 09 11 11 19.72 +35 11.6 4.981 4.147 30.7 7.1 17.7 2008 09 16 11 27.38 +34 55.5 4.970 4.156 32.4 7.4 17.7 2008 09 21 11 35.01 +34 40.2 4.957 4.165 34.3 7.8 17.7 2008 09 26 11 42.61 +34 25.9 4.940 4.175 36.3 8.2 17.7 2008 10 01 11 50.18 +34 12.6 4.921 4.185 38.5 8.6 17.7 2008 10 06 11 57.69 +34 00.5 4.900 4.195 40.9 9.0 17.7 2008 10 11 12 05.16 +33 49.8 4.876 4.206 43.3 9.4 17.7 2008 10 16 12 12.56 +33 40.6 4.850 4.217 45.9 9.8 17.7 2008 10 21 12 19.89 +33 33.0 4.822 4.229 48.5 10.2 17.7 2008 10 26 12 27.15 +33 27.2 4.792 4.241 51.2 10.5 17.7 2008 10 31 12 34.31 +33 23.4 4.760 4.253 54.0 10.9 17.7 2008 11 05 12 41.39 +33 21.6 4.727 4.265 56.8 11.2 17.7 2008 11 10 12 48.35 +33 22.1 4.692 4.278 59.7 11.5 17.7 2008 11 15 12 55.19 +33 24.9 4.656 4.291 62.6 11.8 17.7 2008 11 20 13 01.90 +33 30.1 4.619 4.305 65.6 12.1 17.7 2008 11 25 13 08.46 +33 37.9 4.581 4.318 68.5 12.3 17.7 2008 11 30 13 14.87 +33 48.3 4.542 4.333 71.6 12.5 17.7 2008 12 05 13 21.09 +34 01.5 4.503 4.347 74.6 12.6 17.6 2008 12 10 13 27.12 +34 17.4 4.464 4.362 77.7 12.7 17.6 2008 12 15 13 32.94 +34 36.1 4.425 4.377 80.8 12.8 17.6 2008 12 20 13 38.54 +34 57.6 4.387 4.392 83.9 12.9 17.6 2008 12 25 13 43.88 +35 22.0 4.349 4.408 86.9 12.9 17.6 2008 12 30 13 48.96 +35 49.1 4.312 4.424 90.0 12.8 17.6 2009 01 04 13 53.73 +36 18.8 4.277 4.440 93.1 12.8 17.6 2009 01 09 13 58.20 +36 51.1 4.243 4.456 96.1 12.7 17.6 2009 01 14 14 02.33 +37 25.6 4.211 4.473 99.1 12.5 17.6 2009 01 19 14 06.10 +38 02.3 4.181 4.490 102.0 12.4 17.6 2009 01 24 14 09.48 +38 40.8 4.153 4.507 104.9 12.2 17.6 2009 01 29 14 12.47 +39 20.9 4.128 4.525 107.7 12.0 17.6 2009 02 03 14 15.02 +40 02.1 4.105 4.543 110.3 11.7 17.6 2009 02 08 14 17.14 +40 44.1 4.086 4.561 112.8 11.5 17.6 2009 02 13 14 18.80 +41 26.3 4.071 4.579 115.2 11.3 17.7 2009 02 18 14 19.99 +42 08.4 4.059 4.597 117.4 11.0 17.7 2009 02 23 14 20.71 +42 49.8 4.050 4.616 119.3 10.8 17.7 2009 02 28 14 20.95 +43 29.8 4.046 4.635 121.1 10.5 17.7 2009 03 05 14 20.72 +44 08.1 4.046 4.654 122.5 10.4 17.7 2009 03 10 14 20.04 +44 43.9 4.049 4.674 123.7 10.2 17.7 2009 03 15 14 18.94 +45 16.8 4.058 4.694 124.6 10.0 17.8 2009 03 20 14 17.43 +45 46.2 4.070 4.714 125.1 10.0 17.8 2009 03 25 14 15.57 +46 11.7 4.087 4.734 125.3 9.9 17.8 2009 03 30 14 13.40 +46 32.9 4.108 4.754 125.2 9.9 17.8 2009 04 04 14 10.98 +46 49.3 4.133 4.775 124.8 9.9 17.9 2009 04 09 14 08.37 +47 00.8 4.163 4.795 124.0 10.0 17.9 2009 04 14 14 05.65 +47 07.2 4.196 4.816 123.0 10.1 17.9 2009 04 19 14 02.87 +47 08.3 4.234 4.837 121.7 10.2 18.0 2009 04 24 14 00.11 +47 04.2 4.275 4.859 120.1 10.3 18.0 2009 04 29 13 57.43 +46 55.0 4.321 4.880 118.4 10.5 18.1 2009 05 04 13 54.89 +46 40.7 4.369 4.902 116.4 10.6 18.1 2009 05 09 13 52.55 +46 21.7 4.421 4.924 114.3 10.8 18.2 2009 05 14 13 50.45 +45 58.3 4.476 4.946 112.1 10.9 18.2 2009 05 19 13 48.62 +45 30.7 4.534 4.968 109.8 11.0 18.2This comet gets close to the sun during the period covered in the ephemeris below. Observers are warned to be wary of observing comets near the sun. NEVER point any kind of optical instrument at the sun--instant blindness will be the probable result.